Location: Zagreb
(45.8000°N, 16.0000°E)
Time: 09:39:59
(UTC+01:00)

Transit 2A - Visible Passes

Search period start: 04 March 2024 00:00
Search period end: 14 March 2024 00:00
Orbit: 599 x 953 km, 66.7° (Epoch: 03 March)

Date Brightness Start Highest point End Pass type
(mag) Time Alt. Az. Time Alt. Az. Time Alt. Az.
04 Mar 8.3 19:37:27 10° WNW 19:39:52 14° NW 19:42:19 10° N visible
05 Mar 8.1 19:01:25 10° W 19:04:32 19° NW 19:07:44 10° N visible
06 Mar 7.6 18:25:38 10° WSW 18:29:17 26° NW 18:33:00 10° NNE visible
08 Mar 8.4 19:01:48 10° NW 19:03:08 11° NNW 19:04:30 10° NNW visible
09 Mar 8.2 18:25:17 10° WNW 18:27:44 15° NW 18:30:15 10° N visible
